Temp
62 62 62 62 62 61 61 61 61 61 61 61 61 60 60 60 60 60 61 62 62 62 62 62 62 60 60 48 45 61 63 62 60 57 51 47 43 42 36 41 41 35 37 40 42 46 50
62 62 62 61 61 61 61 61 61 61 61 61 61 60 60 60 60 60 60 61 62 61 61 62 62 60 54 38 59 62 60 58 56 53 49 48 44 46 40 40 38 42 41 41 41 44 46
61 61 61 61 61 61 60 60 60 60 61 61 60 59 59 59 59 59 59 61 61 61 61 62 63 63 51 45 60 60 59 55 56 53 47 50 49 44 43 38 46 43 34 40 39 43 42
61 61 61 61 61 60 60 60 60 60 60 60 60 59 59 59 58 58 58 59 60 59 60 61 62 59 44 59 60 59 58 54 57 56 53 53 52 45 41 45 41 35 35 24 43 42 45
61 60 60 60 60 60 60 60 59 59 60 60 59 58 58 58 58 57 56 57 59 59 61 62 57 52 41 60 51 57 56 50 53 55 54 56 49 41 41 30 24 27 18 26 35 47 44
60 60 60 60 60 60 60 59 59 59 59 59 59 58 58 57 57 58 56 58 60 58 63 62 60 45 48 44 52 54 57 54 49 50 46 44 40 33 34 27 12 17 18 29 28 36 41
60 60 59 59 59 59 59 59 59 59 59 58 58 57 57 57 57 59 58 55 50 48 51 44 45 44 47 53 57 50 53 50 49 45 32 39 28 22 27 30 28 28 26 23 32 40 33
59 59 59 59 59 59 59 58 58 58 58 58 57 57 57 56 57 59 57 48 44 45 39 52 51 49 52 53 43 47 52 40 39 31 35 30 20 30 34 34 31 27 19 21 34 38 32
59 59 59 58 58 58 58 58 58 58 57 57 57 57 56 56 56 54 50 46 53 53 39 48 50 46 47 50 42 42 45 41 35 30 30 25 27 35 31 26 20 22 17 24 28 35 34
58 58 58 58 58 57 57 57 57 57 57 56 56 57 56 56 52 53 47 53 54 53 33 38 42 46 48 47 38 50 48 40 34 27 30 28 34 30 24 20 26 14 31 32 31 26 22
58 58 57 57 57 57 57 57 57 57 56 56 56 56 56 55 52 49 50 53 53 46 20 40 42 54 48 40 41 42 48 40 26 29 27 24 23 24 21 24 28 17 29 28 29 26 25
57 57 57 57 57 56 56 57 57 57 56 55 55 55 56 54 54 51 53 51 46 31 16 32 42 37 36 40 40 44 40 42 39 31 32 25 35 29 27 32 30 26 22 27 26 22 17
57 57 57 56 56 56 56 56 56 56 56 55 55 54 56 58 46 54 51 44 33 23 38 31 30 34 33 32 34 36 31 24 20 15 16 26 25 31 33 25 28 25 18 11 14 9 7
57 56 56 56 56 56 56 56 56 56 55 54 54 53 57 59 55 53 47 40 24 31 30 36 33 31 30 32 31 32 29 22 26 22 17 13 14 25 30 24 21 22 21 15 6 6 11
56 56 56 56 55 55 55 55 55 55 55 54 53 54 55 55 55 51 44 27 23 27 31 28 30 26 27 31 29 29 26 22 22 25 13 14 13 29 31 29 27 20 19 20 15 24 17
56 56 56 55 55 55 55 55 55 55 55 54 51 53 51 56 54 49 39 29 28 34 33 32 24 26 22 25 23 25 24 28 24 29 31 19 11 26 27 32 29 23 26 16 15 10 10
56 56 55 55 54 54 54 54 55 55 54 54 50 48 52 55 51 45 30 28 32 38 35 28 25 23 25 22 22 21 22 26 28 27 29 20 14 18 27 17 16 19 15 21 17 19 15
55 55 55 54 54 53 54 54 54 54 53 54 48 43 52 53 42 40 31 31 34 34 37 33 30 27 23 22 19 20 21 23 32 29 19 23 14 10 12 20 27 22 11 12 13 8 13
55 55 54 54 53 53 53 53 54 54 53 46 46 45 53 50 35 34 33 35 35 32 31 30 28 29 27 21 12 18 22 30 30 26 18 20 13 9 15 18 24 14 20 15 10 15 5
55 54 54 53 53 53 53 53 53 53 54 48 46 40 44 44 40 34 31 31 31 33 31 30 29 30 26 23 25 13 22 28 30 27 33 27 13 11 5 9 17 11 18 16 11 6 6
54 54 54 53 53 53 52 52 52 53 54 48 45 36 35 35 36 34 31 30 31 29 31 31 28 28 19 9 16 20 23 21 26 29 24 16 8 15 19 23 23 21 16 16 8 8 4
54 54 54 53 53 52 52 52 52 52 54 46 39 34 37 34 35 33 33 29 30 30 28 28 22 28 19 11 17 10 11 13 12 17 18 20 9 18 15 24 24 19 22 20 18 15 12
54 53 53 53 52 52 52 52 51 51 53 44 44 41 36 36 34 31 30 30 29 29 32 32 27 22 15 21 23 25 25 25 22 13 10 8 8 7 8 21 20 11 12 15 12 14 15
54 53 53 53 52 52 51 52 51 51 50 45 40 40 33 32 31 32 31 31 31 31 24 27 25 19 26 30 29 26 23 24 23 22 23 5 1 7 5 15 1 16 25 23 15 15 16
54 54 53 53 52 51 51 51 51 50 50 44 42 39 33 30 33 33 32 31 29 27 26 27 29 29 30 24 18 15 17 19 21 23 15 11 3 2 2 4 15 13 21 16 14 15 18
54 54 53 53 52 51 51 51 51 50 49 46 41 41 35 28 32 32 29 29 24 25 24 27 28 28 24 22 21 12 14 17 16 17 21 13 1 3 5 -1 1 11 17 25 19 8 21
55 54 53 52 52 52 51 51 51 51 49 45 41 42 38 31 33 32 29 27 27 25 22 25 23 21 23 21 19 17 15 16 9 5 8 7 6 4 7 1 12 14 20 24 9 13 22
54 54 53 52 52 52 51 51 50 51 49 45 41 43 38 32 33 35 35 26 25 24 21 20 20 19 20 16 17 16 12 13 10 16 9 8 6 8 7 1 4 18 20 14 17 15 19
54 53 53 52 52 52 51 51 51 50 50 47 39 41 41 33 33 36 38 38 35 32 27 19 21 20 21 17 16 15 14 11 13 9 20 9 17 13 14 16 19 22 17 17 15 14 17
MSLP
1024.16 1023.86 1023.60 1023.34 1023.10 1022.90 1022.67 1022.39 1022.07 1021.73 1021.32 1020.93 1020.60 1020.30 1019.98 1019.65 1019.38 1019.20 1018.94 1018.55 1018.12 1017.90 1017.73 1016.94 1016.43 1016.26 1015.78 1015.86 1017.15 1016.66 1016.16 1016.01 1015.70 1015.28 1015.01 1014.96 1014.67 1014.32 1013.95 1013.45 1013.23 1013.39 1013.15 1012.50 1011.80 1010.62 1009.51
1024.53 1024.21 1023.95 1023.67 1023.31 1023.02 1022.84 1022.58 1022.28 1021.97 1021.57 1021.13 1020.78 1020.47 1020.11 1019.81 1019.53 1019.33 1019.05 1018.66 1018.30 1018.14 1017.88 1017.21 1016.65 1016.51 1016.20 1016.77 1017.24 1016.62 1016.25 1015.67 1015.35 1015.04 1014.66 1014.75 1014.55 1014.45 1013.97 1013.75 1013.59 1013.20 1013.36 1012.66 1012.05 1011.01 1010.56
1024.95 1024.62 1024.30 1024.01 1023.62 1023.24 1023.00 1022.77 1022.49 1022.14 1021.75 1021.29 1020.88 1020.56 1020.21 1019.99 1019.65 1019.45 1019.16 1018.75 1018.44 1018.25 1017.97 1017.52 1016.80 1016.31 1016.61 1017.80 1017.16 1016.69 1016.04 1015.43 1014.71 1014.25 1013.83 1013.93 1014.12 1014.36 1013.84 1013.56 1013.22 1013.27 1012.97 1012.45 1012.14 1011.33 1010.99
1025.32 1025.01 1024.69 1024.34 1023.99 1023.63 1023.27 1022.94 1022.58 1022.22 1021.85 1021.46 1021.02 1020.63 1020.28 1020.01 1019.72 1019.36 1019.14 1018.80 1018.31 1018.19 1017.97 1017.52 1016.98 1016.38 1016.97 1017.38 1017.03 1016.11 1015.58 1014.75 1014.04 1013.52 1013.24 1013.04 1013.26 1013.67 1013.87 1013.85 1013.49 1013.66 1013.19 1012.36 1010.92 1010.88 1010.17
1025.60 1025.29 1024.95 1024.63 1024.28 1023.88 1023.45 1023.04 1022.60 1022.26 1021.92 1021.57 1021.20 1020.73 1020.28 1019.91 1019.62 1019.26 1018.88 1018.61 1018.38 1018.07 1017.41 1017.17 1016.99 1016.63 1017.39 1017.06 1016.53 1016.05 1015.53 1014.25 1013.60 1012.66 1012.35 1012.55 1013.10 1013.44 1013.55 1014.04 1014.47 1014.01 1013.52 1012.42 1010.89 1010.03 1009.77
1025.86 1025.51 1025.18 1024.82 1024.41 1024.00 1023.58 1023.19 1022.80 1022.37 1022.00 1021.64 1021.21 1020.81 1020.33 1019.87 1019.59 1019.04 1018.69 1018.42 1018.28 1018.23 1017.02 1016.89 1017.02 1017.13 1017.19 1017.20 1016.66 1016.20 1015.51 1014.22 1013.24 1012.40 1012.69 1012.98 1013.21 1013.49 1013.79 1014.44 1014.77 1014.30 1013.98 1012.63 1011.85 1010.91 1009.68
1026.10 1025.74 1025.38 1025.02 1024.65 1024.19 1023.75 1023.34 1022.90 1022.43 1021.99 1021.62 1021.24 1020.90 1020.44 1019.97 1019.65 1018.85 1018.15 1018.37 1018.80 1018.59 1018.16 1018.46 1018.61 1018.73 1018.54 1017.67 1016.76 1016.27 1015.24 1014.26 1013.53 1012.95 1013.42 1013.57 1014.36 1014.92 1015.14 1015.03 1015.15 1014.69 1014.05 1013.29 1012.13 1011.36 1011.12
1026.26 1025.98 1025.67 1025.30 1024.87 1024.43 1023.96 1023.48 1022.99 1022.49 1022.02 1021.65 1021.27 1020.91 1020.57 1020.13 1019.84 1019.10 1018.48 1019.15 1020.58 1020.95 1019.70 1018.62 1018.71 1018.77 1018.46 1017.69 1016.77 1015.97 1015.40 1015.21 1014.72 1014.58 1014.94 1015.25 1015.68 1015.78 1015.33 1015.01 1015.05 1014.96 1014.25 1013.25 1011.98 1011.56 1010.94
1026.66 1026.25 1025.92 1025.55 1025.12 1024.65 1024.14 1023.63 1023.15 1022.67 1022.19 1021.82 1021.39 1020.92 1020.57 1020.26 1019.97 1019.89 1020.02 1020.72 1020.90 1020.73 1020.07 1018.50 1018.40 1018.62 1017.79 1017.55 1017.31 1016.67 1016.34 1016.02 1015.98 1015.94 1016.14 1016.33 1016.92 1016.11 1015.95 1015.66 1015.39 1015.07 1014.90 1013.67 1012.77 1011.72 1010.52
1026.96 1026.53 1026.16 1025.75 1025.35 1024.89 1024.38 1023.81 1023.27 1022.78 1022.32 1021.89 1021.48 1021.10 1020.54 1020.03 1020.19 1019.89 1020.53 1021.00 1020.91 1020.83 1020.01 1019.20 1018.45 1018.87 1018.35 1017.84 1017.86 1017.35 1017.17 1016.94 1017.16 1017.10 1017.03 1017.04 1017.16 1016.84 1016.11 1015.97 1015.97 1015.48 1015.02 1013.91 1013.28 1012.82 1011.53
1027.23 1026.84 1026.46 1026.00 1025.54 1025.05 1024.52 1023.96 1023.36 1022.86 1022.41 1021.91 1021.50 1021.26 1020.94 1020.38 1020.45 1020.35 1021.24 1021.02 1020.89 1020.87 1020.61 1019.95 1019.22 1019.05 1019.16 1019.07 1019.11 1017.70 1017.74 1017.16 1017.95 1017.86 1018.04 1018.12 1017.82 1017.17 1016.89 1016.84 1016.55 1015.97 1015.39 1014.83 1013.90 1013.09 1012.74
1027.51 1027.06 1026.65 1026.18 1025.76 1025.27 1024.75 1024.16 1023.53 1022.95 1022.39 1021.92 1021.58 1021.34 1020.81 1020.62 1020.36 1021.07 1021.01 1021.04 1021.06 1021.30 1021.85 1021.16 1020.21 1020.28 1019.97 1019.46 1019.28 1018.57 1018.71 1018.08 1018.30 1018.19 1018.05 1018.39 1017.56 1017.55 1017.56 1016.43 1016.32 1016.47 1015.72 1014.50 1013.99 1013.77 1013.35
1027.74 1027.36 1026.93 1026.37 1025.89 1025.46 1024.99 1024.34 1023.67 1023.05 1022.41 1021.90 1021.57 1021.44 1020.93 1020.72 1021.01 1020.76 1020.89 1020.98 1021.36 1022.32 1023.13 1022.46 1021.92 1021.50 1020.81 1020.44 1019.76 1019.16 1019.25 1019.77 1020.57 1020.10 1019.56 1018.78 1017.91 1017.57 1017.28 1016.87 1016.77 1016.79 1016.34 1015.58 1015.25 1014.76 1013.79
1028.02 1027.65 1027.23 1026.71 1026.16 1025.64 1025.10 1024.46 1023.74 1023.03 1022.36 1021.80 1021.37 1021.25 1020.72 1020.51 1020.67 1020.56 1020.60 1021.08 1022.41 1024.38 1024.50 1024.08 1023.58 1022.63 1021.65 1021.36 1021.07 1020.52 1020.60 1021.23 1021.88 1022.08 1021.43 1020.62 1018.87 1018.13 1017.81 1018.04 1018.02 1017.06 1016.88 1016.70 1015.98 1014.79 1014.05
1028.29 1027.86 1027.49 1027.03 1026.49 1025.88 1025.20 1024.54 1023.86 1023.03 1022.23 1021.56 1021.11 1020.79 1020.47 1020.58 1020.28 1020.44 1020.81 1022.53 1025.20 1025.86 1026.02 1025.66 1024.33 1023.63 1022.95 1022.58 1022.57 1021.77 1022.08 1022.68 1022.98 1022.92 1023.18 1022.29 1020.77 1019.31 1018.57 1018.28 1017.82 1017.37 1017.37 1017.88 1016.93 1014.78 1014.78
1028.45 1028.15 1027.79 1027.32 1026.76 1026.15 1025.46 1024.69 1023.88 1022.98 1022.16 1021.60 1021.31 1020.87 1021.04 1020.57 1020.13 1020.23 1021.55 1024.25 1025.71 1026.32 1026.51 1026.29 1025.69 1025.26 1024.75 1024.17 1023.96 1023.37 1023.29 1023.41 1023.93 1023.96 1023.23 1023.25 1022.30 1019.84 1019.44 1018.89 1018.69 1018.38 1018.49 1018.23 1017.48 1016.74 1016.66
1028.59 1028.41 1028.07 1027.59 1027.11 1026.45 1025.70 1024.96 1024.07 1022.98 1021.97 1021.53 1021.46 1021.08 1021.23 1020.59 1020.48 1021.23 1023.44 1025.16 1025.84 1026.26 1026.86 1026.95 1026.71 1026.49 1026.19 1026.14 1025.66 1025.09 1024.72 1024.24 1024.37 1024.18 1023.66 1023.60 1023.41 1021.14 1020.13 1020.41 1020.67 1019.66 1019.93 1019.28 1019.17 1018.60 1018.63
1028.91 1028.66 1028.24 1027.83 1027.34 1026.76 1026.05 1025.16 1024.27 1023.22 1022.01 1021.27 1021.47 1021.48 1021.23 1020.76 1021.41 1022.59 1024.49 1025.51 1026.37 1026.19 1026.64 1026.88 1027.21 1027.10 1027.08 1027.00 1026.77 1026.29 1025.75 1025.22 1025.06 1025.12 1024.88 1024.38 1023.99 1022.91 1021.65 1021.09 1021.03 1021.52 1021.83 1021.38 1020.90 1020.76 1020.54
1029.13 1028.82 1028.51 1028.08 1027.68 1026.99 1026.30 1025.50 1024.57 1023.71 1023.12 1022.89 1022.42 1022.05 1021.30 1021.04 1022.78 1023.77 1025.04 1025.61 1026.06 1026.24 1026.39 1026.69 1027.05 1027.33 1027.57 1027.72 1027.72 1026.93 1026.30 1025.54 1025.58 1025.75 1025.82 1025.60 1024.82 1024.12 1022.23 1021.89 1021.47 1021.74 1022.31 1022.60 1022.02 1021.97 1022.77
1029.30 1029.00 1028.80 1028.38 1027.85 1027.40 1026.67 1025.88 1025.07 1024.14 1023.46 1023.34 1022.95 1022.99 1022.62 1023.01 1024.08 1024.54 1025.28 1025.68 1025.92 1026.27 1026.65 1026.97 1027.28 1027.34 1027.69 1027.72 1027.69 1027.61 1027.00 1026.07 1026.21 1026.26 1026.00 1025.87 1026.04 1025.72 1025.14 1024.00 1023.53 1023.16 1023.16 1023.42 1023.28 1024.00 1024.40
1029.41 1029.12 1028.93 1028.56 1028.14 1027.80 1027.31 1026.43 1025.43 1024.47 1023.57 1023.69 1023.92 1025.25 1025.76 1024.79 1024.76 1025.29 1025.72 1026.01 1026.03 1026.35 1026.85 1027.07 1027.23 1027.69 1028.38 1028.77 1028.44 1027.97 1027.63 1027.38 1026.99 1027.20 1026.86 1027.17 1027.19 1026.22 1025.18 1024.00 1023.50 1023.49 1023.67 1023.82 1024.58 1025.05 1025.10
1029.49 1029.33 1029.13 1028.90 1028.61 1028.19 1027.81 1027.23 1026.30 1025.07 1024.00 1024.56 1025.86 1026.56 1026.23 1026.03 1025.99 1025.93 1025.81 1025.96 1026.23 1026.33 1026.88 1026.92 1027.60 1027.69 1028.29 1028.90 1028.55 1028.75 1028.73 1028.53 1028.35 1028.15 1028.24 1028.22 1027.81 1026.79 1025.22 1023.80 1023.31 1023.42 1023.60 1024.12 1024.55 1024.94 1025.03
1029.39 1029.32 1029.18 1029.06 1028.91 1028.63 1028.30 1027.86 1027.27 1026.35 1025.00 1026.07 1026.88 1027.36 1027.29 1026.52 1026.22 1026.35 1026.39 1026.33 1026.38 1026.78 1026.37 1026.73 1027.44 1028.10 1028.25 1028.07 1028.00 1027.99 1028.14 1028.22 1028.41 1029.05 1029.18 1029.35 1029.09 1028.13 1026.02 1024.13 1023.49 1023.48 1023.26 1023.89 1024.47 1024.78 1025.41
1029.14 1029.20 1029.10 1028.99 1028.97 1028.93 1028.75 1028.48 1028.13 1027.62 1027.20 1027.45 1028.32 1028.05 1027.90 1027.21 1026.78 1026.66 1026.65 1026.80 1026.76 1026.92 1027.32 1027.26 1027.75 1028.22 1027.78 1027.59 1027.45 1027.32 1027.66 1027.86 1028.12 1028.44 1029.04 1030.12 1030.28 1029.24 1027.63 1025.24 1024.14 1022.81 1022.70 1023.26 1023.96 1024.20 1024.47
1028.86 1028.93 1028.87 1028.80 1028.89 1028.94 1028.88 1028.75 1028.52 1028.33 1028.13 1028.11 1028.53 1028.57 1028.59 1028.05 1027.15 1026.70 1026.76 1026.84 1026.89 1027.01 1027.49 1027.31 1027.31 1027.61 1027.75 1027.74 1027.48 1027.22 1027.14 1027.25 1027.17 1027.80 1028.93 1030.02 1030.58 1030.04 1028.75 1026.93 1024.17 1023.28 1023.00 1023.37 1023.99 1023.77 1023.79
1028.43 1028.48 1028.56 1028.51 1028.57 1028.72 1028.84 1028.88 1028.76 1028.62 1028.39 1028.22 1028.92 1029.02 1029.06 1028.97 1027.32 1027.12 1027.05 1027.09 1027.50 1027.48 1027.41 1027.30 1027.55 1027.81 1027.95 1027.80 1027.53 1027.66 1027.22 1027.21 1027.28 1027.85 1028.65 1030.06 1030.78 1030.75 1028.73 1027.63 1025.24 1023.45 1023.19 1023.33 1023.94 1024.03 1023.48
1027.81 1027.99 1028.18 1028.21 1028.33 1028.49 1028.63 1028.69 1028.74 1028.58 1028.55 1028.42 1028.87 1029.00 1029.04 1029.01 1027.33 1027.23 1027.23 1027.43 1027.58 1027.91 1028.17 1027.65 1028.15 1028.31 1028.29 1027.84 1027.69 1027.63 1027.40 1027.53 1027.98 1028.20 1028.28 1029.34 1029.88 1029.43 1028.15 1027.04 1024.50 1023.08 1023.05 1023.51 1023.97 1023.71 1023.09
1027.20 1027.42 1027.68 1027.80 1027.89 1028.12 1028.20 1028.44 1028.52 1028.43 1028.55 1028.67 1028.84 1028.99 1029.27 1029.05 1027.43 1027.11 1027.14 1027.33 1027.54 1027.90 1028.20 1028.28 1028.94 1028.88 1028.60 1028.45 1028.27 1027.90 1028.00 1027.73 1027.87 1026.83 1026.94 1027.52 1027.89 1027.49 1026.82 1026.04 1023.95 1022.65 1023.35 1023.42 1022.55 1022.52 1022.63
1026.44 1026.70 1026.96 1027.25 1027.40 1027.60 1027.84 1027.95 1028.19 1028.31 1028.31 1028.57 1028.97 1029.15 1029.27 1029.24 1027.66 1027.00 1026.77 1026.77 1026.90 1027.16 1027.63 1028.23 1028.79 1028.85 1028.64 1028.90 1028.69 1028.36 1028.14 1027.83 1027.64 1027.23 1025.96 1026.05 1025.50 1025.74 1025.16 1023.17 1021.71 1021.58 1021.33 1021.47 1021.83 1022.15 1022.27
Wind_Speed
17 18 18 18 19 18 17 17 17 19 20 21 21 18 15 13 12 10 10 12 10 9 15 21 16 9 9 13 9 17 20 16 15 13 15 15 13 12 14 10 6 9 10 15 17 17 18
17 17 18 18 18 18 18 18 18 19 19 20 20 19 14 13 12 9 8 10 11 8 12 19 16 16 17 14 13 16 15 16 17 16 17 15 14 15 16 16 13 10 15 18 14 18 16
17 17 17 18 18 18 18 18 18 18 19 20 20 18 15 12 12 9 6 6 6 7 9 15 14 10 13 15 15 13 18 18 18 15 16 14 15 12 10 11 12 10 12 13 15 16 15
17 17 18 18 18 18 18 18 18 18 18 20 21 18 15 11 11 11 9 8 9 12 10 13 19 2 5 13 13 16 19 21 12 11 12 10 9 14 15 14 15 14 10 5 4 10 6
17 18 18 18 18 18 18 19 18 18 18 19 21 19 15 11 14 10 8 9 11 15 21 9 12 2 7 18 20 19 21 18 12 10 5 5 4 9 9 9 5 6 7 11 10 11 8
17 17 18 18 19 19 19 19 19 18 18 19 19 20 16 10 15 12 4 2 6 10 13 6 11 5 16 23 17 19 21 16 16 8 5 2 3 4 6 4 6 6 5 6 5 8 14
16 17 18 18 19 19 19 19 19 19 19 18 19 20 16 8 14 13 6 3 3 3 8 6 8 9 14 18 10 19 20 15 15 7 8 3 6 7 10 5 7 10 6 6 10 8 6
16 17 18 19 20 20 20 20 20 20 19 19 18 19 16 4 9 16 6 5 3 1 1 6 7 10 13 14 18 22 24 11 12 13 16 6 9 14 12 11 8 8 6 8 9 3 7
16 17 18 19 20 20 20 20 21 20 19 18 17 18 17 11 6 5 10 7 2 2 4 3 9 8 18 14 10 22 22 9 10 12 13 8 14 14 13 10 6 6 3 9 11 12 5
16 17 18 18 19 20 20 21 21 21 20 19 16 16 18 15 2 1 4 4 2 4 2 8 9 7 13 11 11 16 13 5 9 9 9 4 13 13 14 5 8 4 8 11 11 2 3
16 17 18 19 19 20 21 21 22 22 21 19 16 14 13 12 4 4 6 3 1 2 6 14 6 5 24 13 11 16 20 4 4 10 0 6 9 9 12 8 6 6 13 10 10 3 6
16 18 18 19 20 21 21 22 22 22 21 20 15 13 17 2 1 4 4 2 2 0 3 8 8 14 19 13 11 8 15 14 6 6 9 4 3 3 9 10 5 6 6 5 5 2 3
16 17 18 19 20 21 22 22 22 22 21 20 14 9 7 2 4 6 1 3 2 8 9 11 11 14 18 13 11 16 20 22 17 10 11 8 8 4 14 8 6 9 2 1 2 2 6
16 17 18 20 20 21 23 23 23 23 22 19 13 9 5 3 4 4 2 1 10 3 4 8 8 23 6 13 7 15 12 13 13 12 5 8 9 12 13 3 9 8 3 3 3 5 2
15 17 18 20 21 22 23 24 25 24 21 18 12 2 1 6 5 2 2 8 2 4 5 8 18 5 7 12 11 11 15 9 8 17 6 8 7 6 11 2 14 9 5 1 5 5 5
15 17 18 20 21 23 25 25 25 25 20 15 3 2 2 10 6 2 7 5 0 1 6 5 7 6 7 13 11 13 13 9 11 16 10 5 7 5 5 8 10 2 4 2 3 6 3
14 16 18 20 22 23 24 26 26 26 23 9 2 1 3 7 3 6 5 3 1 1 2 3 5 5 5 7 8 7 7 3 13 16 9 4 1 9 5 8 10 10 6 4 1 2 3
13 14 17 19 21 23 25 26 27 27 25 3 2 2 4 4 4 4 3 2 1 1 3 3 3 4 3 5 5 5 6 4 10 12 9 6 2 5 3 6 7 9 2 4 3 6 1
11 13 15 17 20 22 25 27 28 27 18 4 3 1 3 1 4 3 4 4 3 2 1 2 3 2 2 3 4 3 5 3 8 9 7 7 4 6 8 4 5 5 13 7 2 1 3
10 11 13 16 19 22 24 26 28 27 18 3 3 4 3 4 1 3 4 2 2 4 2 1 3 5 4 4 6 5 5 2 7 6 14 4 3 2 3 7 3 8 11 9 6 5 5
7 9 11 14 16 19 23 25 28 29 23 3 5 2 1 5 3 4 2 1 4 2 3 3 3 6 3 3 4 3 4 7 4 10 6 5 2 3 8 9 5 7 5 8 7 4 4
5 7 9 11 14 17 20 23 27 30 24 5 4 4 2 3 3 5 3 3 2 3 4 3 3 5 5 5 8 5 3 2 3 6 5 4 3 5 5 9 5 7 1 5 3 4 4
4 5 6 8 11 14 17 19 22 27 17 4 2 1 1 1 1 2 1 1 3 2 5 3 3 2 3 10 7 7 5 6 7 1 3 2 3 4 5 3 2 4 6 3 4 4 2
6 5 4 4 7 10 13 15 17 20 16 3 2 2 2 3 1 3 1 2 5 4 4 1 2 4 2 4 8 6 5 8 8 7 6 2 1 1 5 6 4 6 6 6 7 8 7
8 7 5 3 3 5 8 11 12 13 13 4 2 2 1 4 1 3 4 5 6 4 4 4 4 3 5 4 3 5 2 3 6 7 5 5 0 4 2 2 5 5 4 4 4 5 7
11 10 7 5 4 2 4 7 8 6 9 2 2 2 2 1 3 1 3 1 3 3 2 4 3 3 1 2 1 2 3 3 2 2 7 5 4 4 3 1 5 6 3 4 5 4 6
14 12 10 8 7 5 3 3 4 4 2 2 2 1 0 2 2 2 3 2 1 2 3 1 2 2 2 2 2 2 3 3 2 2 4 2 2 5 4 4 9 4 7 6 5 7 4
15 14 13 12 10 8 7 4 3 3 3 1 2 1 1 2 5 5 4 4 2 2 2 3 3 2 2 1 1 1 2 3 1 5 5 5 4 4 1 1 9 7 5 7 7 2 5
17 16 14 14 12 11 10 8 6 4 1 5 1 1 1 3 5 2 4 5 3 2 2 1 2 2 1 1 1 1 3 2 2 5 2 4 8 5 8 8 2 10 6 5 5 5 4
Wind_Direction
33 31 28 27 26 22 19 18 18 16 12 15 15 14 14 11 1 9 12 8 350 332 354 8 357 342 332 58 2 327 338 331 321 321 313 305 295 291 278 277 282 251 286 320 321 304 272
31 31 28 26 25 21 16 13 10 8 8 8 12 13 12 9 8 6 18 5 25 39 347 0 342 326 45 45 341 345 329 323 318 308 294 282 272 277 277 277 280 278 269 291 302 284 280
27 27 27 24 22 20 16 10 5 4 9 9 10 9 9 10 1 354 350 360 24 341 329 328 345 2 54 18 344 330 339 332 305 294 288 276 269 262 278 264 251 277 292 292 265 267 230
24 23 22 21 20 18 15 10 6 4 6 8 9 5 5 1 355 338 313 271 295 317 320 301 315 8 36 12 349 342 345 328 326 295 272 290 235 247 248 264 277 287 282 282 291 202 216
23 20 19 17 16 15 13 9 5 3 0 359 4 4 2 352 353 336 304 260 273 300 305 245 2 6 35 335 351 5 347 328 309 291 339 236 237 240 240 228 275 253 265 287 289 222 208
21 18 15 13 13 12 11 8 4 2 360 359 359 2 1 349 350 341 312 257 257 297 348 175 32 339 359 353 329 1 353 333 311 298 117 211 229 237 229 175 220 220 229 257 298 344 236
20 17 14 11 9 8 7 5 4 2 359 358 355 359 359 356 352 348 320 210 228 177 42 61 9 31 338 331 342 358 359 336 345 24 3 96 43 22 326 307 312 315 279 274 291 284 303
20 16 12 9 7 5 4 2 1 2 359 357 353 356 1 3 343 12 26 61 61 323 290 78 41 14 338 342 351 3 7 13 357 15 16 26 24 337 327 323 316 295 316 296 277 280 200
16 16 13 8 5 2 1 0 359 359 358 354 352 354 355 344 298 324 71 54 338 287 259 83 51 18 344 348 0 357 9 347 12 356 2 60 1 340 341 308 301 283 248 283 293 319 259
14 15 12 9 5 360 358 358 358 357 356 352 350 353 347 347 251 266 67 5 345 300 274 9 13 14 340 347 358 345 10 29 17 334 3 338 355 351 342 59 16 288 348 282 294 295 270
14 13 11 8 4 359 356 357 356 356 354 351 348 347 350 349 310 29 343 335 327 237 48 339 354 310 329 27 324 356 27 42 3 331 316 13 321 344 0 338 320 253 338 297 283 224 307
15 13 10 8 3 359 356 355 355 354 352 350 347 347 332 304 219 36 351 279 232 343 358 335 333 336 333 15 352 337 30 13 41 319 354 140 40 82 344 333 39 353 335 291 252 184 268
15 12 7 7 5 359 356 354 354 352 350 347 343 333 331 354 319 329 19 220 354 55 351 339 331 329 315 352 338 4 23 33 26 355 354 329 37 0 15 357 360 357 218 45 137 38 220
15 12 9 5 4 0 357 355 353 351 350 345 338 322 227 75 333 302 207 187 57 32 313 349 314 310 6 7 335 348 355 23 36 14 305 356 343 2 351 70 322 295 320 32 183 169 176
12 13 9 6 4 1 359 357 354 349 348 344 324 209 23 332 322 260 320 47 52 353 349 316 306 341 329 8 339 349 4 26 18 6 16 353 301 323 19 2 11 327 13 36 282 293 80
11 11 10 7 6 4 0 358 354 349 348 350 319 282 46 328 339 303 57 99 150 256 330 306 347 7 321 338 356 352 -0 41 360 357 345 323 295 310 47 353 6 37 279 9 313 17 115
12 10 11 10 7 6 4 360 356 351 346 350 274 314 339 332 343 52 57 74 301 85 344 311 340 306 329 331 323 312 339 339 12 345 354 335 161 300 31 14 29 3 14 338 177 19 352
10 11 13 12 9 6 2 3 -0 357 347 329 304 13 321 350 52 68 57 354 147 262 182 246 248 309 313 307 307 317 327 358 5 356 352 336 282 301 210 243 38 71 348 345 16 328 12
9 12 11 14 10 8 4 1 2 2 10 322 16 354 335 20 42 53 156 187 236 268 306 334 290 93 298 268 331 340 318 302 22 14 9 322 335 321 340 337 6 54 9 350 261 289 342
4 12 7 13 15 9 7 2 358 1 3 316 356 3 15 63 181 347 3 63 280 172 264 264 267 276 323 294 180 266 295 345 348 5 11 337 284 128 194 231 261 334 2 10 11 55 297
353 7 6 11 16 12 7 5 359 358 351 335 19 59 113 330 27 5 141 134 291 308 216 209 248 227 116 300 304 276 357 326 332 359 7 77 298 347 276 283 276 286 6 5 35 283 82
331 349 5 10 14 15 12 11 5 359 348 66 29 13 349 307 316 297 160 206 291 328 186 212 216 321 151 197 192 273 63 226 256 330 359 355 286 329 276 230 219 256 38 354 35 338 340
289 320 355 8 11 14 14 15 15 10 2 59 10 127 339 192 270 342 342 319 270 68 244 222 238 335 211 237 244 254 259 259 255 253 300 5 358 8 280 25 320 314 210 204 245 192 202
252 280 315 353 5 11 14 16 24 24 24 69 9 306 358 294 131 243 182 264 266 270 232 257 136 146 289 312 269 247 251 254 251 246 211 303 10 173 270 325 -0 218 172 181 204 229 216
240 254 270 293 332 355 11 16 24 31 29 63 5 3 30 281 347 304 292 259 305 238 235 233 219 194 1 307 316 317 235 238 221 222 140 123 255 312 80 265 277 347 190 174 158 277 172
237 240 246 254 257 282 343 7 13 40 24 80 77 294 72 315 230 112 279 108 275 318 244 227 87 42 342 260 293 313 294 313 292 249 89 100 100 119 351 30 241 225 183 141 104 291 190
232 233 241 245 247 244 256 318 345 27 36 14 115 10 128 281 250 186 250 233 182 239 236 160 35 335 51 287 266 253 281 102 282 256 224 202 194 201 247 239 288 209 149 158 69 239 184
226 226 233 238 241 235 232 237 278 313 190 294 111 83 58 253 269 202 202 186 175 199 210 275 15 337 289 328 112 251 242 226 336 235 192 180 162 225 72 28 285 151 109 163 212 214 188
225 221 226 233 234 230 231 225 239 275 277 191 225 149 131 223 263 351 277 288 252 196 110 183 186 249 271 19 309 340 278 160 214 277 0 283 192 205 175 225 206 199 181 211 148 181 231